{"data":{"norad_id":41167,"epoch":"2026-05-25T04:14:33.263232Z","epoch_age_seconds":59751,"freshness":"FRESH","line1":"1 41167U 15077B   26145.17677388  .00003623  00000+0  11813-3 0  9994","line2":"2 41167  14.9800  77.0877 0008445 274.3014  85.6343 15.22968078577580","mean_motion":15.22968078,"eccentricity":0.0008445,"inclination_deg":14.98,"raan_deg":77.0877,"arg_perigee_deg":274.3014,"mean_anomaly_deg":85.6343,"bstar":0.00011813,"rev_number":57758,"period_min":94.552211618975,"perigee_km":491.08772395104,"apogee_km":502.699650782,"semimajor_km":6875.0306873665,"source":"CELESTRAK","updated_at":"2026-05-25T13:38:12.790283Z"}}